Погода в Биллунне

Дания     55°43′57″N   9°06′33″E
темп.,
°C
ветер,
м/с
пор.,
м/с
влажн.,
%
обл.,
%
осадки,
мм/ч
давл.,
гПа
погр.,
м
6 мая, чт
чт623:00+5з6118984 0.3 996600
02:00+5зсз5992100 0.5 997801
05:00+4з4892100 0.2 997368
08:00+5сз4685100 0.2 998776
11:00+7сз4570100 0.2 9991231
14:00+8сз676799 1.0 10011403
17:00+5зсз458596 0.7 1002702
20:00+5зсз468399 1.2 1002675
7 мая, пт
пт723:00+4зсз2591100 0.2 1004213
02:00+3ссз2497100 0.4 1004437
05:00+3з1297100 0.7 1004210
08:00+3зюз229298 0.9 1006241
11:00+7з557694 0.2 1007915
14:00+8з5664100 0.8 10071397
17:00+9з776144 0.4 10081528
20:00+7з57755 0.4 1009610
8 мая, сб
сб823:00+4з410935 0.0 1011335
02:00+4з511845 0.0 1012332
05:00+3з411855 0.0 1013311
08:00+7з697612 0.0 1014932
11:00+9з6757100 0.0 10141430
14:00+10юз6754100 0.0 10141493
17:00+10ююз5757100 0.0 10131200
20:00+9ююв5966100 0.0 1010761
9 мая, вс
вс923:00+8ююв71273100 0.1 10081047
02:00+7ююв91790100 1.4 1003888
05:00+10ююз81597100 1.5 1000742
08:00+11юз7149494 1.9 1001576
11:00+15ююз813771 0.0 1002811
14:00+19ююз812625 0.0 10021142
17:00+16ююв61283100 1.3 1001573
20:00+17ююв6138476 1.3 1000552
10 мая, пн
пн1023:00+14ююз2696100 1.6 1001122
02:00+14ю31097100 4.8 1000289
05:00+13ююз4999100 1.1 1000282
08:00+14ююз81295100 1.3 1001700
11:00+16ююз5985100 0.1 1002842
14:00+11зюз51095100 1.1 1006510
17:00+13юз6107692 0.0 1008874
20:00+12зюз2582100 0.0 1009427